EJU31LH LOWW-LIML

Flight info

Callsign EJU31LH
Flight time 1h 6m
Altitude 34000
Route OSPEN DCT ABRUK DCT SETAL DCT DETSA DCT BAKOR DCT NAXAV DCT RENTA DCT ATPED DCT LUSIL
Aircraft A320/M-SDE2E3FGHIJ1RWXYZ/LB1

Departure

Time 2026-05-06 10:25
Airport Vienna International Airport (LOWW)

Arrival

Time 2026-05-06 11:32
Airport Milano Linate Airport (LIML)
Time Latitude Longitude Altitude Speed Heading
2026-05-06 09:59 48.11974 16.55842 621 ft 0 kts 294°
2026-05-06 10:17 48.11972 16.55847 610 ft 2 kts 294°
2026-05-06 10:17 48.11965 16.55869 628 ft 2 kts 295°
2026-05-06 10:17 48.11958 16.55891 627 ft 2 kts 295°
2026-05-06 10:18 48.11951 16.55914 625 ft 2 kts 280°
2026-05-06 10:18 48.11952 16.55939 622 ft 2 kts 224°
2026-05-06 10:18 48.11956 16.55945 622 ft 0 kts 204°
2026-05-06 10:20 48.11947 16.55939 625 ft 5 kts 204°
2026-05-06 10:20 48.11878 16.55891 616 ft 15 kts 206°
2026-05-06 10:21 48.11787 16.55839 622 ft 12 kts 171°
2026-05-06 10:21 48.11736 16.55938 618 ft 13 kts 114°
2026-05-06 10:21 48.11691 16.56079 616 ft 16 kts 116°
2026-05-06 10:21 48.11638 16.56239 616 ft 18 kts 116°
2026-05-06 10:22 48.11579 16.56416 615 ft 20 kts 116°
2026-05-06 10:22 48.11518 16.56603 613 ft 20 kts 116°
2026-05-06 10:22 48.11455 16.56799 620 ft 22 kts 116°
2026-05-06 10:22 48.11389 16.57003 616 ft 22 kts 115°
2026-05-06 10:23 48.11322 16.57209 619 ft 22 kts 116°
2026-05-06 10:23 48.11255 16.57413 622 ft 22 kts 115°
2026-05-06 10:23 48.11190 16.57620 617 ft 22 kts 115°
2026-05-06 10:23 48.11121 16.57827 620 ft 22 kts 117°
2026-05-06 10:24 48.11053 16.58033 623 ft 22 kts 115°
2026-05-06 10:24 48.10973 16.58206 627 ft 19 kts 135°
2026-05-06 10:24 48.10894 16.58275 621 ft 0 kts 162°
2026-05-06 10:24 48.10890 16.58277 619 ft 2 kts 162°
2026-05-06 10:25 48.10751 16.58340 615 ft 55 kts 164°
2026-05-06 10:25 48.10153 16.58593 618 ft 121 kts 164°
2026-05-06 10:25 48.09204 16.59011 896 ft 149 kts 161°
2026-05-06 10:25 48.08216 16.59413 1789 ft 147 kts 165°
2026-05-06 10:26 48.07159 16.59845 2361 ft 168 kts 164°
2026-05-06 10:26 48.05949 16.60025 2791 ft 191 kts 191°
2026-05-06 10:26 48.04775 16.58827 3264 ft 224 kts 224°
2026-05-06 10:26 48.03677 16.57009 3887 ft 247 kts 225°
2026-05-06 10:27 48.02504 16.55067 4876 ft 254 kts 225°
2026-05-06 10:27 48.01305 16.53104 5989 ft 258 kts 225°
2026-05-06 10:27 48.00079 16.51124 7047 ft 261 kts 225°
2026-05-06 10:27 47.98832 16.49139 8107 ft 263 kts 225°
2026-05-06 10:28 47.97568 16.47142 9134 ft 266 kts 225°
2026-05-06 10:28 47.96369 16.45017 10133 ft 270 kts 236°
2026-05-06 10:28 47.95602 16.42433 11045 ft 278 kts 251°
2026-05-06 10:28 47.95076 16.39535 11509 ft 300 kts 252°
2026-05-06 10:29 47.94526 16.36465 12233 ft 311 kts 252°
2026-05-06 10:29 47.93965 16.33322 13106 ft 316 kts 252°
2026-05-06 10:29 47.93394 16.30133 13929 ft 321 kts 253°
2026-05-06 10:29 47.92814 16.26898 14690 ft 325 kts 253°
2026-05-06 10:30 47.92224 16.23617 15468 ft 329 kts 253°
2026-05-06 10:30 47.91623 16.20300 16225 ft 333 kts 253°
2026-05-06 10:30 47.91013 16.16944 17010 ft 338 kts 253°
2026-05-06 10:30 47.90394 16.13543 17781 ft 342 kts 253°
2026-05-06 10:31 47.89765 16.10105 18497 ft 346 kts 253°
2026-05-06 10:31 47.89126 16.06633 19173 ft 350 kts 253°
2026-05-06 10:31 47.88481 16.03121 19826 ft 353 kts 253°
2026-05-06 10:31 47.87756 15.99660 20481 ft 356 kts 246°
2026-05-06 10:32 47.86540 15.96384 21151 ft 359 kts 233°
2026-05-06 10:32 47.84869 15.93614 21825 ft 362 kts 221°
2026-05-06 10:32 47.82903 15.91328 22455 ft 365 kts 218°
2026-05-06 10:32 47.80870 15.89038 23102 ft 369 kts 218°
2026-05-06 10:33 47.78812 15.86720 23687 ft 372 kts 218°
2026-05-06 10:33 47.76744 15.84390 24220 ft 375 kts 218°
2026-05-06 10:33 47.74657 15.82039 24759 ft 378 kts 218°
2026-05-06 10:33 47.73265 15.80468 25135 ft 379 kts 218°
2026-05-06 10:34 47.71135 15.78060 25670 ft 382 kts 218°
2026-05-06 10:34 47.69012 15.75664 26177 ft 384 kts 218°
2026-05-06 10:34 47.66902 15.73291 26658 ft 387 kts 218°
2026-05-06 10:34 47.64745 15.70868 27159 ft 390 kts 218°
2026-05-06 10:35 47.62573 15.68437 27650 ft 393 kts 218°
2026-05-06 10:35 47.60384 15.65985 28154 ft 396 kts 218°
2026-05-06 10:35 47.58176 15.63511 28633 ft 399 kts 218°
2026-05-06 10:35 47.55953 15.61024 29097 ft 402 kts 218°
2026-05-06 10:36 47.53718 15.58529 29565 ft 405 kts 218°
2026-05-06 10:36 47.51483 15.55972 30004 ft 407 kts 223°
2026-05-06 10:36 47.49546 15.52926 30348 ft 408 kts 234°
2026-05-06 10:36 47.48070 15.49347 30732 ft 410 kts 245°
2026-05-06 10:37 47.47098 15.45384 31139 ft 411 kts 253°
2026-05-06 10:37 47.46318 15.41313 31582 ft 411 kts 253°
2026-05-06 10:37 47.45534 15.37266 32137 ft 408 kts 253°
2026-05-06 10:37 47.44749 15.33252 32703 ft 405 kts 253°
2026-05-06 10:38 47.43966 15.29263 33260 ft 403 kts 253°
2026-05-06 10:38 47.43186 15.25309 33741 ft 401 kts 253°
2026-05-06 10:38 47.42404 15.21361 33853 ft 398 kts 252°
2026-05-06 10:38 47.41643 15.17508 33870 ft 386 kts 253°
2026-05-06 10:39 47.40159 15.09960 33875 ft 380 kts 252°
2026-05-06 10:39 47.38672 15.02478 33884 ft 380 kts 252°
2026-05-06 10:40 47.37182 14.95004 33881 ft 379 kts 252°
2026-05-06 10:40 47.35693 14.87546 33887 ft 379 kts 252°
2026-05-06 10:41 47.34203 14.80087 33877 ft 379 kts 252°
2026-05-06 10:41 47.32705 14.72630 33875 ft 379 kts 252°
2026-05-06 10:42 47.31206 14.65223 33873 ft 380 kts 252°
2026-05-06 10:42 47.29695 14.57758 33873 ft 381 kts 252°
2026-05-06 10:43 47.28177 14.50287 33875 ft 381 kts 252°
2026-05-06 10:44 47.25880 14.39071 33871 ft 382 kts 251°
2026-05-06 10:44 47.24344 14.31597 33869 ft 382 kts 251°
2026-05-06 10:45 47.22800 14.24107 33870 ft 382 kts 251°
2026-05-06 10:45 47.21251 14.16618 33871 ft 383 kts 251°
2026-05-06 10:46 47.19693 14.09128 33871 ft 383 kts 251°
2026-05-06 10:46 47.18124 14.01627 33868 ft 384 kts 251°
2026-05-06 10:47 47.16555 13.94135 33869 ft 384 kts 251°
2026-05-06 10:47 47.14976 13.86639 33871 ft 384 kts 251°
2026-05-06 10:48 47.13390 13.79143 33873 ft 384 kts 251°
2026-05-06 10:48 47.11801 13.71640 33870 ft 385 kts 251°
2026-05-06 10:49 47.10217 13.64187 33874 ft 385 kts 251°
2026-05-06 10:49 47.08603 13.56626 33871 ft 386 kts 251°
2026-05-06 10:50 47.07005 13.49159 33874 ft 386 kts 250°
2026-05-06 10:50 47.05386 13.41649 33866 ft 387 kts 250°
2026-05-06 10:51 47.03760 13.34124 33865 ft 387 kts 250°
2026-05-06 10:51 47.02131 13.26609 33865 ft 387 kts 250°
2026-05-06 10:52 47.00493 13.19090 33866 ft 387 kts 250°
2026-05-06 10:52 46.98853 13.11562 33862 ft 387 kts 250°
2026-05-06 10:53 46.97213 13.04046 33865 ft 388 kts 250°
2026-05-06 10:53 46.95558 12.96530 33865 ft 388 kts 250°
2026-05-06 10:54 46.93898 12.89010 33865 ft 388 kts 250°
2026-05-06 10:54 46.92237 12.81500 33866 ft 388 kts 250°
2026-05-06 10:55 46.90568 12.73986 33866 ft 389 kts 250°
2026-05-06 10:55 46.88893 12.66458 33878 ft 389 kts 250°
2026-05-06 10:56 46.87213 12.58939 33895 ft 389 kts 250°
2026-05-06 10:56 46.85526 12.51426 33912 ft 389 kts 250°
2026-05-06 10:57 46.83831 12.43920 33934 ft 389 kts 250°
2026-05-06 10:57 46.82137 12.36414 33947 ft 389 kts 250°
2026-05-06 10:58 46.80431 12.28923 33961 ft 388 kts 247°
2026-05-06 10:58 46.78098 12.21907 33962 ft 387 kts 242°
2026-05-06 10:59 46.75644 12.14875 33956 ft 386 kts 242°
2026-05-06 10:59 46.73222 12.07942 33952 ft 386 kts 242°
2026-05-06 11:00 46.70783 12.00969 33942 ft 386 kts 242°
2026-05-06 11:00 46.68337 11.94003 33930 ft 385 kts 242°
2026-05-06 11:01 46.65896 11.87058 33924 ft 385 kts 242°
2026-05-06 11:01 46.63460 11.80126 33911 ft 384 kts 241°
2026-05-06 11:02 46.61022 11.73225 33902 ft 383 kts 241°
2026-05-06 11:02 46.58578 11.66350 33905 ft 382 kts 241°
2026-05-06 11:03 46.56140 11.59501 33898 ft 381 kts 241°
2026-05-06 11:03 46.53703 11.52661 33902 ft 381 kts 241°
2026-05-06 11:04 46.51267 11.45835 33899 ft 380 kts 241°
2026-05-06 11:04 46.48829 11.39028 33901 ft 379 kts 241°
2026-05-06 11:05 46.46394 11.32244 33902 ft 379 kts 240°
2026-05-06 11:05 46.44015 11.25424 33904 ft 379 kts 242°
2026-05-06 11:06 46.41690 11.18583 33907 ft 378 kts 242°
2026-05-06 11:06 46.39360 11.11766 33988 ft 377 kts 242°
2026-05-06 11:07 46.37011 11.04965 33989 ft 377 kts 241°
2026-05-06 11:07 46.34660 10.98186 33979 ft 376 kts 241°
2026-05-06 11:08 46.32314 10.91422 33970 ft 376 kts 241°
2026-05-06 11:08 46.29970 10.84670 33960 ft 375 kts 241°
2026-05-06 11:09 46.27632 10.77930 33937 ft 375 kts 241°
2026-05-06 11:09 46.25282 10.71181 33906 ft 382 kts 241°
2026-05-06 11:09 46.24065 10.67708 33184 ft 392 kts 241°
2026-05-06 11:10 46.22837 10.64200 32608 ft 388 kts 241°
2026-05-06 11:10 46.21628 10.60743 32147 ft 383 kts 240°
2026-05-06 11:10 46.20434 10.57336 31678 ft 379 kts 240°
2026-05-06 11:10 46.19264 10.54001 31222 ft 374 kts 240°
2026-05-06 11:11 46.18096 10.50670 30793 ft 369 kts 240°
2026-05-06 11:11 46.16942 10.47381 30351 ft 365 kts 239°
2026-05-06 11:11 46.15801 10.44122 29878 ft 362 kts 239°
2026-05-06 11:11 46.14673 10.40895 29374 ft 359 kts 239°
2026-05-06 11:12 46.13552 10.37698 28930 ft 355 kts 239°
2026-05-06 11:12 46.12445 10.34552 28502 ft 350 kts 239°
2026-05-06 11:12 46.11346 10.31445 28063 ft 345 kts 239°
2026-05-06 11:12 46.10258 10.28387 27635 ft 341 kts 239°
2026-05-06 11:13 46.09184 10.25367 27223 ft 337 kts 239°
2026-05-06 11:13 46.08120 10.22377 26778 ft 334 kts 239°
2026-05-06 11:13 46.07065 10.19410 26342 ft 332 kts 239°
2026-05-06 11:13 46.06016 10.16464 25894 ft 329 kts 239°
2026-05-06 11:14 46.04892 10.13624 25464 ft 325 kts 231°
2026-05-06 11:14 46.03415 10.11196 24992 ft 321 kts 220°
2026-05-06 11:14 46.01639 10.09283 24536 ft 318 kts 211°
2026-05-06 11:14 45.99755 10.07621 24069 ft 318 kts 211°
2026-05-06 11:15 45.97871 10.05949 23612 ft 317 kts 211°
2026-05-06 11:15 45.95996 10.04283 23104 ft 317 kts 211°
2026-05-06 11:15 45.94122 10.02619 22621 ft 316 kts 211°
2026-05-06 11:15 45.92265 10.00968 22173 ft 314 kts 211°
2026-05-06 11:16 45.90412 9.99321 21726 ft 312 kts 211°
2026-05-06 11:16 45.88567 9.97686 21287 ft 311 kts 211°
2026-05-06 11:16 45.86733 9.96065 20839 ft 309 kts 211°
2026-05-06 11:16 45.84909 9.94455 20403 ft 307 kts 211°
2026-05-06 11:17 45.83099 9.92860 19987 ft 305 kts 211°
2026-05-06 11:17 45.81290 9.91264 19565 ft 305 kts 211°
2026-05-06 11:17 45.79485 9.89669 19117 ft 305 kts 211°
2026-05-06 11:17 45.77689 9.88084 18695 ft 304 kts 211°
2026-05-06 11:18 45.75889 9.86495 18275 ft 304 kts 211°
2026-05-06 11:18 45.74693 9.85441 17959 ft 305 kts 211°
2026-05-06 11:18 45.72891 9.83855 17515 ft 303 kts 212°
2026-05-06 11:18 45.71098 9.82280 17093 ft 302 kts 211°
2026-05-06 11:19 45.69311 9.80714 16681 ft 301 kts 212°
2026-05-06 11:19 45.67529 9.79149 16267 ft 301 kts 211°
2026-05-06 11:19 45.65742 9.77578 15855 ft 302 kts 212°
2026-05-06 11:19 45.63970 9.75979 15612 ft 298 kts 213°
2026-05-06 11:20 45.61713 9.73773 15259 ft 292 kts 215°
2026-05-06 11:20 45.60616 9.72666 15030 ft 291 kts 215°
2026-05-06 11:20 45.58969 9.70993 14683 ft 290 kts 215°
2026-05-06 11:20 45.57327 9.69327 14351 ft 289 kts 215°
2026-05-06 11:21 45.55690 9.67675 14010 ft 288 kts 215°
2026-05-06 11:21 45.54056 9.66034 13858 ft 286 kts 215°
2026-05-06 11:21 45.52437 9.64418 13213 ft 283 kts 215°
2026-05-06 11:21 45.50830 9.62816 12540 ft 280 kts 215°
2026-05-06 11:22 45.49236 9.61234 12101 ft 280 kts 215°
2026-05-06 11:22 45.47640 9.59653 11709 ft 279 kts 215°
2026-05-06 11:22 45.46045 9.58078 11334 ft 278 kts 215°
2026-05-06 11:22 45.44480 9.56529 10925 ft 278 kts 215°
2026-05-06 11:23 45.42902 9.54964 10577 ft 277 kts 215°
2026-05-06 11:23 45.41322 9.53403 10219 ft 274 kts 215°
2026-05-06 11:23 45.39747 9.51849 9797 ft 274 kts 215°
2026-05-06 11:23 45.38193 9.50320 9385 ft 271 kts 215°
2026-05-06 11:24 45.36661 9.48813 8694 ft 265 kts 214°
2026-05-06 11:24 45.35157 9.47330 8374 ft 260 kts 214°
2026-05-06 11:24 45.33703 9.45897 8225 ft 249 kts 214°
2026-05-06 11:24 45.32290 9.44532 8022 ft 242 kts 210°
2026-05-06 11:25 45.30729 9.43670 7900 ft 238 kts 192°
2026-05-06 11:25 45.29109 9.43548 7759 ft 230 kts 178°
2026-05-06 11:25 45.27520 9.43725 7433 ft 229 kts 178°
2026-05-06 11:25 45.25900 9.43853 6886 ft 236 kts 185°
2026-05-06 11:26 45.24415 9.43061 6621 ft 228 kts 219°
2026-05-06 11:26 45.23527 9.41239 6252 ft 231 kts 253°
2026-05-06 11:26 45.23336 9.38948 5826 ft 236 kts 263°
2026-05-06 11:26 45.23221 9.36615 5425 ft 238 kts 263°
2026-05-06 11:27 45.23103 9.34253 5022 ft 241 kts 263°
2026-05-06 11:27 45.23227 9.31910 4614 ft 241 kts 290°
2026-05-06 11:27 45.24288 9.30132 4233 ft 240 kts 331°
2026-05-06 11:27 45.25884 9.29583 3795 ft 239 kts 358°
2026-05-06 11:28 45.27524 9.29490 3429 ft 230 kts 359°
2026-05-06 11:28 45.29071 9.29362 3123 ft 217 kts 357°
2026-05-06 11:28 45.30526 9.29210 2862 ft 201 kts 358°
2026-05-06 11:28 45.31870 9.29065 2597 ft 187 kts 357°
2026-05-06 11:29 45.33125 9.28930 2342 ft 175 kts 358°
2026-05-06 11:29 45.34307 9.28795 2120 ft 163 kts 357°
2026-05-06 11:29 45.35385 9.28669 1923 ft 152 kts 359°
2026-05-06 11:29 45.36412 9.28562 1683 ft 144 kts 359°
2026-05-06 11:30 45.37402 9.28455 1501 ft 141 kts
2026-05-06 11:30 45.38386 9.28358 1290 ft 141 kts
2026-05-06 11:30 45.39359 9.28256 1122 ft 140 kts
2026-05-06 11:30 45.40340 9.28146 976 ft 141 kts 360°
2026-05-06 11:31 45.41311 9.28048 788 ft 138 kts
2026-05-06 11:31 45.42272 9.27942 607 ft 139 kts
2026-05-06 11:31 45.43230 9.27840 438 ft 140 kts
2026-05-06 11:31 45.44149 9.27751 362 ft 124 kts 355°
2026-05-06 11:32 45.44785 9.27679 362 ft 64 kts 355°
2026-05-06 11:32 45.45127 9.27643 358 ft 36 kts 356°
2026-05-06 11:32 45.45328 9.27671 364 ft 29 kts 26°
2026-05-06 11:32 45.45455 9.27790 360 ft 14 kts 46°
2026-05-06 11:33 45.45551 9.27816 361 ft 14 kts
2026-05-06 11:33 45.45656 9.27816 360 ft 18 kts
2026-05-06 11:33 45.45775 9.27818 363 ft 16 kts
2026-05-06 11:33 45.45878 9.27821 360 ft 12 kts
2026-05-06 11:34 45.45908 9.27907 365 ft 11 kts 90°
2026-05-06 11:34 45.45940 9.27966 360 ft 8 kts
2026-05-06 11:34 45.45974 9.27967 360 ft 0 kts